Time,TemperatureF,DewpointF,PressureIn,WindDirection,WindDirectionDegrees,WindSpeedMPH,WindSpeedGustMPH,Humidity,HourlyPrecipIn,Conditions,Clouds,dailyrainin,SoftwareType,DateUTC
2013-04-17 00:00:00,36.2,27.0,30.30,NNW,343,0.0,0.0,69,0.00,CLR,,0.00,WeatherDisplay:10.37,2013-04-17 05:00:00,
2013-04-17 00:05:00,35.9,28.1,30.30,NNW,343,0.0,0.0,73,0.00,CLR,,0.00,WeatherDisplay:10.37,2013-04-17 05:05:00,
2013-04-17 00:10:00,35.5,28.0,30.30,NNW,343,0.0,0.0,74,0.00,CLR,,0.00,WeatherDisplay:10.37,2013-04-17 05:10:00,
2013-04-17 00:15:00,35.2,27.7,30.29,NNW,343,0.0,0.0,74,0.00,CLR,,0.00,WeatherDisplay:10.37,2013-04-17 05:15:00,
2013-04-17 00:20:00,35.2,27.7,30.29,NNW,343,0.0,0.0,74,0.00,CLR,,0.00,WeatherDisplay:10.37,2013-04-17 05:20:00,
2013-04-17 00:25:00,35.2,27.4,30.29,NNW,343,0.0,0.0,73,0.00,CLR,,0.00,WeatherDisplay:10.37,2013-04-17 05:25:00,
2013-04-17 00:30:00,35.3,27.5,30.29,NNW,343,0.0,0.0,73,0.00,CLR,,0.00,WeatherDisplay:10.37,2013-04-17 05:30:00,
2013-04-17 00:35:00,35.5,27.7,30.29,NNW,343,0.0,0.0,73,0.00,CLR,,0.00,WeatherDisplay:10.37,2013-04-17 05:35:00,
2013-04-17 00:40:00,35.5,27.4,30.29,NNW,343,0.0,0.0,72,0.00,CLR,,0.00,WeatherDisplay:10.37,2013-04-17 05:40:00,
2013-04-17 00:45:00,35.6,27.5,30.29,NNW,343,1.1,0.0,72,0.00,CLR,,0.00,WeatherDisplay:10.37,2013-04-17 05:45:00,
2013-04-17 00:50:00,35.6,27.5,30.29,NNW,343,0.0,0.0,72,0.00,CLR,,0.00,WeatherDisplay:10.37,2013-04-17 05:50:00,
2013-04-17 00:55:00,35.8,27.3,30.29,NNW,343,0.0,0.0,71,0.00,CLR,,0.00,WeatherDisplay:10.37,2013-04-17 05:55:00,
2013-04-17 01:00:00,35.9,27.4,30.29,NNW,343,1.1,0.0,71,0.00,CLR,,0.00,WeatherDisplay:10.37,2013-04-17 06:00:00,
2013-04-17 01:05:00,35.9,27.1,30.29,NNW,343,0.0,0.0,70,0.00,CLR,,0.00,WeatherDisplay:10.37,2013-04-17 06:05:00,
2013-04-17 01:10:00,35.8,27.3,30.29,NNW,343,0.0,0.0,71,0.00,CLR,,0.00,WeatherDisplay:10.37,2013-04-17 06:10:00,
2013-04-17 01:15:00,35.8,27.3,30.29,NNW,343,0.0,0.0,71,0.00,CLR,,0.00,WeatherDisplay:10.37,2013-04-17 06:15:00,
2013-04-17 01:20:00,35.6,27.1,30.29,NNW,343,0.0,0.0,71,0.00,CLR,,0.00,WeatherDisplay:10.37,2013-04-17 06:20:00,
2013-04-17 01:25:00,35.5,27.0,30.29,NNW,343,0.0,0.0,71,0.00,CLR,,0.00,WeatherDisplay:10.37,2013-04-17 06:25:00,
2013-04-17 01:30:00,35.5,27.0,30.30,NNW,343,0.0,0.0,71,0.00,CLR,,0.00,WeatherDisplay:10.37,2013-04-17 06:30:00,
2013-04-17 01:35:00,35.5,27.0,30.30,NNW,343,0.0,0.0,71,0.00,CLR,,0.00,WeatherDisplay:10.37,2013-04-17 06:35:00,
2013-04-17 01:40:00,35.3,27.2,30.30,NNW,343,0.0,0.0,72,0.00,CLR,,0.00,WeatherDisplay:10.37,2013-04-17 06:40:00,
2013-04-17 01:45:00,35.3,27.2,30.29,NNW,343,0.0,0.0,72,0.00,CLR,,0.00,WeatherDisplay:10.37,2013-04-17 06:45:00,
2013-04-17 01:50:00,35.2,27.1,30.29,NNW,343,0.0,0.1,72,0.00,CLR,,0.00,WeatherDisplay:10.37,2013-04-17 06:50:00,
2013-04-17 01:55:00,35.0,26.9,30.29,NNW,343,0.0,0.0,72,0.00,CLR,,0.00,WeatherDisplay:10.37,2013-04-17 06:55:00,
2013-04-17 02:00:00,34.9,27.1,30.29,NNW,343,0.0,0.0,73,0.00,CLR,,0.00,WeatherDisplay:10.37,2013-04-17 07:00:00,
2013-04-17 02:05:00,34.7,27.3,30.29,NNW,343,0.0,0.0,74,0.00,CLR,,0.00,WeatherDisplay:10.37,2013-04-17 07:05:00,
2013-04-17 02:10:00,34.4,27.0,30.29,NNW,343,0.0,0.0,74,0.00,CLR,,0.00,WeatherDisplay:10.37,2013-04-17 07:10:00,
2013-04-17 02:15:00,34.1,26.7,30.28,NNW,343,0.0,0.0,74,0.00,SCT,,0.00,WeatherDisplay:10.37,2013-04-17 07:15:00,
2013-04-17 02:20:00,34.0,26.9,30.28,NNW,343,0.0,0.0,75,0.00,SCT,,0.00,WeatherDisplay:10.37,2013-04-17 07:20:00,
2013-04-17 02:25:00,33.8,26.7,30.28,NNW,343,0.0,0.0,75,0.00,SCT,,0.00,WeatherDisplay:10.37,2013-04-17 07:25:00,
2013-04-17 02:30:00,33.7,26.9,30.29,NNW,343,0.0,0.0,76,0.00,SCT,,0.00,WeatherDisplay:10.37,2013-04-17 07:30:00,
2013-04-17 02:35:00,33.5,26.7,30.29,NNW,343,0.0,0.0,76,0.00,SCT,,0.00,WeatherDisplay:10.37,2013-04-17 07:35:00,
2013-04-17 02:40:00,33.2,26.8,30.29,NNW,343,0.0,0.0,77,0.00,SCT,,0.00,WeatherDisplay:10.37,2013-04-17 07:40:00,
2013-04-17 02:45:00,33.1,26.7,30.28,NNW,343,0.0,0.0,77,0.00,CLR,,0.00,WeatherDisplay:10.37,2013-04-17 07:45:00,
2013-04-17 02:50:00,32.9,26.8,30.28,NNW,343,0.0,0.0,78,0.00,CLR,,0.00,WeatherDisplay:10.37,2013-04-17 07:50:00,
2013-04-17 02:55:00,32.8,26.7,30.28,NNW,343,0.0,0.0,78,0.00,CLR,,0.00,WeatherDisplay:10.37,2013-04-17 07:55:00,
2013-04-17 03:00:00,32.7,26.9,30.29,NNW,343,0.0,0.0,79,0.00,CLR,,0.00,WeatherDisplay:10.37,2013-04-17 08:00:00,
2013-04-17 03:05:00,32.5,26.7,30.29,NNW,343,0.0,0.0,79,0.00,CLR,,0.00,WeatherDisplay:10.37,2013-04-17 08:05:00,
2013-04-17 03:10:00,32.4,26.9,30.29,NNW,343,0.0,0.0,80,0.00,CLR,,0.00,WeatherDisplay:10.37,2013-04-17 08:10:00,
2013-04-17 03:15:00,32.4,26.9,30.29,NNW,343,0.0,0.0,80,0.00,CLR,,0.00,WeatherDisplay:10.37,2013-04-17 08:15:00,
2013-04-17 03:20:00,32.5,27.0,30.29,NNW,343,0.0,0.0,80,0.00,CLR,,0.00,WeatherDisplay:10.37,2013-04-17 08:20:00,
2013-04-17 03:25:00,32.7,27.2,30.29,NNW,343,0.0,0.0,80,0.00,CLR,,0.00,WeatherDisplay:10.37,2013-04-17 08:25:00,
2013-04-17 03:30:00,32.8,27.0,30.29,NNW,343,0.0,0.0,79,0.00,CLR,,0.00,WeatherDisplay:10.37,2013-04-17 08:30:00,
2013-04-17 03:35:00,32.9,26.8,30.29,NNW,343,0.0,0.0,78,0.00,CLR,,0.00,WeatherDisplay:10.37,2013-04-17 08:35:00,
2013-04-17 03:40:00,33.1,27.0,30.29,NNW,343,0.0,0.0,78,0.00,CLR,,0.00,WeatherDisplay:10.37,2013-04-17 08:40:00,
2013-04-17 03:45:00,33.1,27.0,30.29,NNW,343,0.0,0.0,78,0.00,BKN,,0.00,WeatherDisplay:10.37,2013-04-17 08:45:00,
2013-04-17 03:50:00,33.1,27.0,30.29,NNW,343,0.0,0.0,78,0.00,BKN,,0.00,WeatherDisplay:10.37,2013-04-17 08:50:00,
2013-04-17 03:55:00,33.4,27.0,30.29,NNW,343,1.1,0.0,77,0.00,BKN,,0.00,WeatherDisplay:10.37,2013-04-17 08:55:00,
2013-04-17 04:00:00,33.7,26.9,30.28,NNW,343,1.1,1.1,76,0.00,BKN,,0.00,WeatherDisplay:10.37,2013-04-17 09:00:00,
2013-04-17 04:05:00,34.0,27.2,30.28,NNW,343,3.5,3.5,76,0.00,BKN,,0.00,WeatherDisplay:10.37,2013-04-17 09:05:00,
2013-04-17 04:10:00,34.1,27.0,30.28,NNW,343,2.3,2.3,75,0.00,BKN,,0.00,WeatherDisplay:10.37,2013-04-17 09:10:00,
2013-04-17 04:15:00,34.4,26.6,30.27,NNW,343,0.0,0.0,73,0.00,OVC,,0.00,WeatherDisplay:10.37,2013-04-17 09:15:00,
2013-04-17 04:20:00,34.7,26.9,30.27,NNW,343,3.5,3.5,73,0.00,OVC,,0.00,WeatherDisplay:10.37,2013-04-17 09:20:00,
2013-04-17 04:25:00,35.0,26.5,30.27,ENE,65,4.6,4.6,71,0.00,OVC,,0.00,WeatherDisplay:10.37,2013-04-17 09:25:00,
2013-04-17 04:30:00,35.3,26.5,30.26,NE,44,4.0,4.0,70,0.00,OVC,,0.00,WeatherDisplay:10.37,2013-04-17 09:30:00,
2013-04-17 04:35:00,35.5,26.3,30.26,NE,34,3.5,3.5,69,0.00,OVC,,0.00,WeatherDisplay:10.37,2013-04-17 09:35:00,
2013-04-17 04:40:00,35.5,26.3,30.26,North,5,4.6,4.6,69,0.00,OVC,,0.00,WeatherDisplay:10.37,2013-04-17 09:40:00,
2013-04-17 04:45:00,35.5,26.3,30.25,NNE,21,3.5,3.5,69,0.00,BKN,,0.00,WeatherDisplay:10.37,2013-04-17 09:45:00,
2013-04-17 04:50:00,35.5,26.3,30.25,NNE,21,3.5,3.5,69,0.00,BKN,,0.00,WeatherDisplay:10.37,2013-04-17 09:50:00,
2013-04-17 04:55:00,35.3,26.1,30.25,NNE,21,1.1,1.1,69,0.00,BKN,,0.00,WeatherDisplay:10.37,2013-04-17 09:55:00,
2013-04-17 05:00:00,35.3,26.1,30.24,NNE,21,2.3,2.3,69,0.00,SCT,,0.00,WeatherDisplay:10.37,2013-04-17 10:00:00,
2013-04-17 05:05:00,35.3,26.1,30.24,NNE,21,0.0,0.0,69,0.00,SCT,,0.00,WeatherDisplay:10.37,2013-04-17 10:05:00,
2013-04-17 05:10:00,35.3,26.1,30.24,NNE,21,2.3,2.3,69,0.00,SCT,,0.00,WeatherDisplay:10.37,2013-04-17 10:10:00,
2013-04-17 05:15:00,35.3,25.8,30.23,NNE,24,3.5,3.5,68,0.00,SCT,,0.00,WeatherDisplay:10.37,2013-04-17 10:15:00,
2013-04-17 05:20:00,35.5,26.0,30.23,ENE,74,3.5,3.5,68,0.00,SCT,,0.00,WeatherDisplay:10.37,2013-04-17 10:20:00,
2013-04-17 05:25:00,35.6,26.1,30.23,ENE,64,3.5,3.5,68,0.00,SCT,,0.00,WeatherDisplay:10.37,2013-04-17 10:25:00,
2013-04-17 05:30:00,35.6,25.7,30.22,NE,41,1.1,1.1,67,0.00,SCT,,0.00,WeatherDisplay:10.37,2013-04-17 10:30:00,
2013-04-17 05:35:00,35.5,25.6,30.22,ENE,63,2.3,2.3,67,0.00,SCT,,0.00,WeatherDisplay:10.37,2013-04-17 10:35:00,
2013-04-17 05:40:00,35.5,26.0,30.22,NE,41,3.5,3.5,68,0.00,SCT,,0.00,WeatherDisplay:10.37,2013-04-17 10:40:00,
2013-04-17 05:45:00,35.3,25.8,30.21,NE,36,3.5,3.5,68,0.00,CLR,,0.00,WeatherDisplay:10.37,2013-04-17 10:45:00,
2013-04-17 05:50:00,35.3,25.8,30.21,NE,36,3.0,3.0,68,0.00,CLR,,0.00,WeatherDisplay:10.37,2013-04-17 10:50:00,
2013-04-17 05:55:00,35.2,25.7,30.21,NNE,22,4.6,4.6,68,0.00,CLR,,0.00,WeatherDisplay:10.37,2013-04-17 10:55:00,
2013-04-17 06:00:00,35.0,25.9,30.20,NE,44,3.5,3.5,69,0.00,SCT,,0.00,WeatherDisplay:10.37,2013-04-17 11:00:00,
2013-04-17 06:05:00,35.0,25.9,30.20,North,5,3.5,3.5,69,0.00,SCT,,0.00,WeatherDisplay:10.37,2013-04-17 11:05:00,
2013-04-17 06:10:00,35.0,25.9,30.20,North,5,5.8,5.8,69,0.00,SCT,,0.00,WeatherDisplay:10.37,2013-04-17 11:10:00,
2013-04-17 06:15:00,35.0,25.9,30.20,NE,37,3.5,3.5,69,0.00,SCT,,0.00,WeatherDisplay:10.37,2013-04-17 11:15:00,
2013-04-17 06:20:00,35.0,25.9,30.20,North,10,4.6,4.6,69,0.00,SCT,,0.00,WeatherDisplay:10.37,2013-04-17 11:20:00,
2013-04-17 06:25:00,35.2,26.0,30.20,NE,55,5.8,5.8,69,0.00,SCT,,0.00,WeatherDisplay:10.37,2013-04-17 11:25:00,
2013-04-17 06:30:00,35.5,26.3,30.21,ENE,60,4.0,4.0,69,0.00,BKN,,0.00,WeatherDisplay:10.37,2013-04-17 11:30:00,
2013-04-17 06:35:00,35.5,26.0,30.21,ENE,60,5.8,5.8,68,0.00,BKN,,0.00,WeatherDisplay:10.37,2013-04-17 11:35:00,
2013-04-17 06:40:00,35.6,26.1,30.21,NNE,30,4.6,4.6,68,0.00,BKN,,0.00,WeatherDisplay:10.37,2013-04-17 11:40:00,
2013-04-17 06:45:00,35.6,25.7,30.23,ESE,107,3.5,3.5,67,0.00,OVC,,0.00,WeatherDisplay:10.37,2013-04-17 11:45:00,
2013-04-17 06:50:00,35.8,25.9,30.23,ESE,113,6.9,6.9,67,0.00,OVC,,0.00,WeatherDisplay:10.37,2013-04-17 11:50:00,
2013-04-17 06:55:00,35.8,25.9,30.23,ESE,120,2.3,2.3,67,0.00,OVC,,0.00,WeatherDisplay:10.37,2013-04-17 11:55:00,
2013-04-17 07:00:00,35.6,26.1,30.26,SSE,159,3.5,3.5,68,0.00,OVC,,0.00,WeatherDisplay:10.37,2013-04-17 12:00:00,
2013-04-17 07:05:00,35.6,26.1,30.26,SSE,158,3.5,3.5,68,0.00,OVC,,0.00,WeatherDisplay:10.37,2013-04-17 12:05:00,
2013-04-17 07:10:00,35.5,26.3,30.26,SSE,158,3.5,3.5,69,0.00,OVC,,0.00,WeatherDisplay:10.37,2013-04-17 12:10:00,
2013-04-17 07:15:00,35.5,26.3,30.28,ENE,61,3.5,3.5,69,0.00,OVC,,0.00,WeatherDisplay:10.37,2013-04-17 12:15:00,
2013-04-17 07:20:00,35.5,26.7,30.28,ENE,63,2.3,2.3,70,0.00,OVC,,0.00,WeatherDisplay:10.37,2013-04-17 12:20:00,
2013-04-17 07:25:00,35.3,26.5,30.28,ENE,78,2.3,2.3,70,0.00,OVC,,0.00,WeatherDisplay:10.37,2013-04-17 12:25:00,
2013-04-17 07:30:00,35.5,26.7,30.26,ENE,78,3.5,3.5,70,0.00,OVC,,0.00,WeatherDisplay:10.37,2013-04-17 12:30:00,
2013-04-17 07:35:00,35.5,26.7,30.26,ENE,78,3.5,3.5,70,0.00,OVC,,0.00,WeatherDisplay:10.37,2013-04-17 12:35:00,
2013-04-17 07:40:00,35.5,26.7,30.26,ENE,73,5.8,5.8,70,0.00,OVC,,0.00,WeatherDisplay:10.37,2013-04-17 12:40:00,
2013-04-17 07:45:00,35.5,26.7,30.25,ENE,66,4.6,4.6,70,0.00,OVC,,0.00,WeatherDisplay:10.37,2013-04-17 12:45:00,
2013-04-17 07:50:00,35.5,26.7,30.25,ENE,61,5.8,5.8,70,0.00,OVC,,0.00,WeatherDisplay:10.37,2013-04-17 12:50:00,
2013-04-17 07:55:00,35.6,26.8,30.25,ENE,64,5.0,5.0,70,0.00,OVC,,0.00,WeatherDisplay:10.37,2013-04-17 12:55:00,
2013-04-17 08:00:00,35.6,26.8,30.23,ESE,105,6.9,6.9,70,0.00,OVC,,0.00,WeatherDisplay:10.37,2013-04-17 13:00:00,
2013-04-17 08:05:00,35.8,26.6,30.23,East,101,6.9,6.9,69,0.00,OVC,,0.00,WeatherDisplay:10.37,2013-04-17 13:05:00,
2013-04-17 08:10:00,35.8,26.6,30.23,ENE,67,5.0,5.0,69,0.00,OVC,,0.00,WeatherDisplay:10.37,2013-04-17 13:10:00,
2013-04-17 08:15:00,35.9,26.7,30.22,ESE,116,9.2,9.2,69,0.00,OVC,,0.00,WeatherDisplay:10.37,2013-04-17 13:15:00,
2013-04-17 08:20:00,35.8,26.6,30.22,ENE,76,6.9,6.9,69,0.00,OVC,,0.00,WeatherDisplay:10.37,2013-04-17 13:20:00,
2013-04-17 08:25:00,35.9,27.1,30.22,SE,130,10.4,10.4,70,0.00,OVC,,0.00,WeatherDisplay:10.37,2013-04-17 13:25:00,
2013-04-17 08:30:00,36.0,26.8,30.23,East,80,6.9,6.9,69,0.00,OVC,,0.00,WeatherDisplay:10.37,2013-04-17 13:30:00,
2013-04-17 08:35:00,36.0,26.5,30.23,ENE,58,11.5,11.5,68,0.00,OVC,,0.00,WeatherDisplay:10.37,2013-04-17 13:35:00,
2013-04-17 08:40:00,36.0,26.8,30.23,East,96,9.2,9.2,69,0.00,OVC,,0.00,WeatherDisplay:10.37,2013-04-17 13:40:00,
2013-04-17 08:45:00,36.0,26.8,30.24,ENE,63,8.1,8.1,69,0.00,OVC,,0.00,WeatherDisplay:10.37,2013-04-17 13:45:00,
2013-04-17 08:50:00,36.0,26.8,30.24,ESE,105,4.6,4.6,69,0.00,OVC,,0.00,WeatherDisplay:10.37,2013-04-17 13:50:00,
2013-04-17 08:55:00,36.2,27.0,30.24,East,98,6.9,6.9,69,0.00,OVC,,0.00,WeatherDisplay:10.37,2013-04-17 13:55:00,
2013-04-17 09:00:00,36.0,26.8,30.23,ENE,70,3.5,3.5,69,0.00,OVC,,0.00,WeatherDisplay:10.37,2013-04-17 14:00:00,
2013-04-17 09:05:00,36.0,26.8,30.23,ENE,61,6.9,6.9,69,0.00,OVC,,0.00,WeatherDisplay:10.37,2013-04-17 14:05:00,
2013-04-17 09:10:00,35.9,27.1,30.23,NNE,30,10.4,10.4,70,0.00,OVC,,0.00,WeatherDisplay:10.37,2013-04-17 14:10:00,
2013-04-17 09:15:00,35.9,27.1,30.22,ENE,75,9.2,9.2,70,0.00,OVC,,0.00,WeatherDisplay:10.37,2013-04-17 14:15:00,
2013-04-17 09:20:00,35.9,27.1,30.22,NE,38,4.0,4.0,70,0.00,OVC,,0.00,WeatherDisplay:10.37,2013-04-17 14:20:00,
2013-04-17 09:25:00,36.0,27.2,30.22,NNE,30,6.9,6.9,70,0.00,OVC,,0.00,WeatherDisplay:10.37,2013-04-17 14:25:00,
2013-04-17 09:30:00,35.9,27.1,30.21,NNE,19,10.0,10.0,70,0.00,OVC,,0.00,WeatherDisplay:10.37,2013-04-17 14:30:00,
2013-04-17 09:35:00,35.9,27.1,30.21,ENE,63,6.0,6.0,70,0.00,OVC,,0.00,WeatherDisplay:10.37,2013-04-17 14:35:00,
2013-04-17 09:40:00,36.0,27.2,30.21,NE,41,10.4,10.4,70,0.00,OVC,,0.00,WeatherDisplay:10.37,2013-04-17 14:40:00,
2013-04-17 09:45:00,36.0,27.2,30.21,NE,36,5.8,5.8,70,0.00,OVC,,0.00,WeatherDisplay:10.37,2013-04-17 14:45:00,
2013-04-17 09:50:00,36.2,27.4,30.21,NE,50,4.6,4.6,70,0.00,OVC,,0.00,WeatherDisplay:10.37,2013-04-17 14:50:00,
2013-04-17 09:55:00,36.2,27.4,30.21,NE,36,3.5,3.5,70,0.00,OVC,,0.00,WeatherDisplay:10.37,2013-04-17 14:55:00,
2013-04-17 10:00:00,36.3,27.4,30.21,North,355,4.0,4.0,70,0.00,OVC,,0.00,WeatherDisplay:10.37,2013-04-17 15:00:00,
2013-04-17 10:05:00,36.5,28.0,30.21,NNE,21,4.6,4.6,71,0.00,OVC,,0.00,WeatherDisplay:10.37,2013-04-17 15:05:00,
2013-04-17 10:10:00,36.5,27.6,30.21,East,85,5.8,5.8,70,0.00,OVC,,0.00,WeatherDisplay:10.37,2013-04-17 15:10:00,
2013-04-17 10:15:00,36.5,27.6,30.21,NE,40,4.0,4.0,70,0.00,OVC,,0.00,WeatherDisplay:10.37,2013-04-17 15:15:00,
2013-04-17 10:20:00,36.3,27.4,30.21,ESE,121,4.6,4.6,70,0.00,OVC,,0.00,WeatherDisplay:10.37,2013-04-17 15:20:00,
2013-04-17 10:25:00,36.3,27.4,30.21,ENE,68,5.8,5.8,70,0.00,OVC,,0.00,WeatherDisplay:10.37,2013-04-17 15:25:00,
2013-04-17 10:30:00,36.3,27.8,30.22,SE,136,5.8,5.8,71,0.00,OVC,,0.00,WeatherDisplay:10.37,2013-04-17 15:30:00,
2013-04-17 10:35:00,36.5,28.0,30.22,East,84,5.8,5.8,71,0.00,OVC,,0.00,WeatherDisplay:10.37,2013-04-17 15:35:00,
2013-04-17 10:40:00,36.5,28.0,30.22,ESE,104,4.6,4.6,71,0.00,OVC,,0.00,WeatherDisplay:10.37,2013-04-17 15:40:00,
2013-04-17 10:45:00,36.6,28.4,30.24,ESE,115,3.5,3.5,72,0.00,OVC,,0.00,WeatherDisplay:10.37,2013-04-17 15:45:00,
2013-04-17 10:50:00,36.9,28.7,30.24,ESE,117,3.5,3.5,72,0.00,OVC,,0.00,WeatherDisplay:10.37,2013-04-17 15:50:00,
2013-04-17 10:55:00,37.0,28.8,30.24,ESE,117,1.1,1.1,72,0.00,OVC,,0.00,WeatherDisplay:10.37,2013-04-17 15:55:00,
2013-04-17 11:00:00,37.2,29.0,30.25,ESE,108,3.5,3.5,72,0.00,OVC,,0.00,WeatherDisplay:10.37,2013-04-17 16:00:00,
2013-04-17 11:05:00,37.2,28.7,30.25,East,87,5.8,5.8,71,0.00,OVC,,0.00,WeatherDisplay:10.37,2013-04-17 16:05:00,
2013-04-17 11:10:00,37.0,28.8,30.25,NE,50,3.5,3.5,72,0.00,OVC,,0.00,WeatherDisplay:10.37,2013-04-17 16:10:00,
2013-04-17 11:15:00,36.9,28.7,30.24,East,88,4.6,4.6,72,0.00,OVC,,0.00,WeatherDisplay:10.37,2013-04-17 16:15:00,
2013-04-17 11:20:00,37.0,29.1,30.24,SE,143,5.8,5.8,73,0.00,OVC,,0.00,WeatherDisplay:10.37,2013-04-17 16:20:00,
2013-04-17 11:25:00,36.9,28.7,30.24,NNE,28,6.9,6.9,72,0.00,OVC,,0.00,WeatherDisplay:10.37,2013-04-17 16:25:00,
2013-04-17 11:30:00,36.8,28.6,30.21,East,96,6.9,6.9,72,0.00,OVC,,0.00,WeatherDisplay:10.37,2013-04-17 16:30:00,
2013-04-17 11:35:00,36.6,28.8,30.21,SE,124,10.4,10.4,73,0.00,OVC,,0.00,WeatherDisplay:10.37,2013-04-17 16:35:00,
2013-04-17 11:40:00,36.6,28.8,30.21,SE,129,11.5,11.5,73,0.00,OVC,,0.00,WeatherDisplay:10.37,2013-04-17 16:40:00,
2013-04-17 11:45:00,36.6,28.8,30.19,ESE,105,11.5,11.5,73,0.00,SCT,,0.00,WeatherDisplay:10.37,2013-04-17 16:45:00,
2013-04-17 11:50:00,36.5,28.7,30.19,NE,44,5.8,5.8,73,0.00,SCT,,0.00,WeatherDisplay:10.37,2013-04-17 16:50:00,
2013-04-17 11:55:00,36.3,28.8,30.19,East,101,9.2,9.2,74,0.00,SCT,,0.00,WeatherDisplay:10.37,2013-04-17 16:55:00,
2013-04-17 12:00:00,36.0,29.2,30.18,ENE,68,6.9,6.9,76,0.00,SCT,,0.00,WeatherDisplay:10.37,2013-04-17 17:00:00,
2013-04-17 12:05:00,35.6,29.4,30.18,ENE,74,9.2,9.2,78,0.00,SCT,,0.00,WeatherDisplay:10.37,2013-04-17 17:05:00,
2013-04-17 12:10:00,35.5,29.9,30.18,NE,37,4.6,4.6,80,0.00,SCT,,0.00,WeatherDisplay:10.37,2013-04-17 17:10:00,
2013-04-17 12:15:00,35.3,30.1,30.16,NNE,32,6.9,6.9,81,0.01,-SN,,0.01,WeatherDisplay:10.37,2013-04-17 17:15:00,
2013-04-17 12:20:00,35.3,30.1,30.16,NE,37,4.6,4.6,81,0.01,-SN,,0.01,WeatherDisplay:10.37,2013-04-17 17:20:00,
2013-04-17 12:25:00,35.2,30.3,30.16,ENE,61,5.0,5.0,82,0.01,-SN,,0.01,WeatherDisplay:10.37,2013-04-17 17:25:00,
2013-04-17 12:30:00,35.2,30.3,30.15,NE,55,10.0,10.0,82,0.01,BKN,,0.01,WeatherDisplay:10.37,2013-04-17 17:30:00,
2013-04-17 12:35:00,35.2,30.3,30.15,NNW,346,3.5,3.5,82,0.01,BKN,,0.01,WeatherDisplay:10.37,2013-04-17 17:35:00,
2013-04-17 12:40:00,35.2,30.3,30.15,ENE,72,11.5,11.5,82,0.01,BKN,,0.01,WeatherDisplay:10.37,2013-04-17 17:40:00,
2013-04-17 12:45:00,35.3,30.4,30.13,NNE,30,8.1,8.1,82,0.01,-RA,,0.01,WeatherDisplay:10.37,2013-04-17 17:45:00,
2013-04-17 12:50:00,35.3,30.4,30.13,East,81,10.0,10.0,82,0.02,-RA,,0.02,WeatherDisplay:10.37,2013-04-17 17:50:00,
2013-04-17 12:55:00,35.5,30.8,30.13,ENE,74,10.4,10.4,83,0.03,-RA,,0.03,WeatherDisplay:10.37,2013-04-17 17:55:00,
2013-04-17 13:00:00,35.8,31.1,30.12,ENE,78,9.2,9.2,83,0.04,-RA,,0.04,WeatherDisplay:10.37,2013-04-17 18:00:00,
2013-04-17 13:05:00,36.2,31.8,30.12,NE,40,3.5,3.5,84,0.04,-RA,,0.04,WeatherDisplay:10.37,2013-04-17 18:05:00,
2013-04-17 13:10:00,36.6,32.2,30.12,NE,41,6.9,6.9,84,0.05,-RA,,0.05,WeatherDisplay:10.37,2013-04-17 18:10:00,
2013-04-17 13:15:00,36.9,32.5,30.11,North,9,5.8,5.8,84,0.04,-RA,,0.05,WeatherDisplay:10.37,2013-04-17 18:15:00,
2013-04-17 13:20:00,37.6,33.5,30.11,ENE,70,6.9,6.9,85,0.04,-RA,,0.05,WeatherDisplay:10.37,2013-04-17 18:20:00,
2013-04-17 13:25:00,37.5,32.8,30.11,NNW,340,11.5,11.5,83,0.04,-RA,,0.05,WeatherDisplay:10.37,2013-04-17 18:25:00,
2013-04-17 13:30:00,37.3,32.0,30.10,ENE,59,13.8,13.8,81,0.04,-RA,,0.05,WeatherDisplay:10.37,2013-04-17 18:30:00,
2013-04-17 13:35:00,37.6,32.3,30.10,East,98,6.9,6.9,81,0.04,-RA,,0.05,WeatherDisplay:10.37,2013-04-17 18:35:00,
2013-04-17 13:40:00,37.5,31.6,30.10,East,79,13.8,13.8,79,0.05,-RA,,0.06,WeatherDisplay:10.37,2013-04-17 18:40:00,
2013-04-17 13:45:00,37.6,32.0,30.10,ENE,71,5.8,5.8,80,0.05,RA,,0.06,WeatherDisplay:10.37,2013-04-17 18:45:00,
2013-04-17 13:50:00,37.8,31.9,30.10,ENE,71,11.5,11.5,79,0.04,BKN,,0.06,WeatherDisplay:10.37,2013-04-17 18:50:00,
2013-04-17 13:55:00,38.0,32.1,30.10,ENE,71,11.5,11.5,79,0.03,BKN,,0.06,WeatherDisplay:10.37,2013-04-17 18:55:00,
2013-04-17 14:00:00,38.0,31.7,30.08,SE,129,9.2,9.2,78,0.02,BKN,,0.06,WeatherDisplay:10.37,2013-04-17 19:00:00,
2013-04-17 14:05:00,37.9,31.7,30.08,East,95,4.6,4.6,78,0.02,BKN,,0.06,WeatherDisplay:10.37,2013-04-17 19:05:00,
2013-04-17 14:10:00,38.0,31.4,30.08,East,90,3.5,3.5,77,0.01,BKN,,0.06,WeatherDisplay:10.37,2013-04-17 19:10:00,
2013-04-17 14:15:00,38.2,31.6,30.08,NE,35,6.9,6.9,77,0.01,OVC,,0.06,WeatherDisplay:10.37,2013-04-17 19:15:00,
2013-04-17 14:20:00,38.3,31.4,30.08,NNE,23,6.9,6.9,76,0.01,OVC,,0.06,WeatherDisplay:10.37,2013-04-17 19:20:00,
2013-04-17 14:25:00,38.3,31.7,30.08,NE,34,10.4,10.4,77,0.01,OVC,,0.06,WeatherDisplay:10.37,2013-04-17 19:25:00,
2013-04-17 14:30:00,38.3,31.4,30.08,ENE,63,6.9,6.9,76,0.01,OVC,,0.06,WeatherDisplay:10.37,2013-04-17 19:30:00,
2013-04-17 14:35:00,38.6,31.7,30.08,ENE,78,10.4,10.4,76,0.01,OVC,,0.06,WeatherDisplay:10.37,2013-04-17 19:35:00,
2013-04-17 14:40:00,38.8,30.9,30.08,ESE,112,11.5,11.5,73,0.00,OVC,,0.06,WeatherDisplay:10.37,2013-04-17 19:40:00,
2013-04-17 14:45:00,38.6,31.7,30.08,ENE,66,7.0,7.0,76,0.00,OVC,,0.06,WeatherDisplay:10.37,2013-04-17 19:45:00,
2013-04-17 14:50:00,38.5,31.3,30.08,NE,52,6.9,6.9,75,0.00,OVC,,0.06,WeatherDisplay:10.37,2013-04-17 19:50:00,
2013-04-17 14:55:00,38.5,31.6,30.08,NE,34,8.1,8.1,76,0.00,OVC,,0.06,WeatherDisplay:10.37,2013-04-17 19:55:00,
2013-04-17 15:00:00,38.3,31.4,30.07,NE,51,3.5,3.5,76,0.00,OVC,,0.06,WeatherDisplay:10.37,2013-04-17 20:00:00,
2013-04-17 15:05:00,38.3,31.4,30.07,North,360,9.2,9.2,76,0.00,OVC,,0.06,WeatherDisplay:10.37,2013-04-17 20:05:00,
2013-04-17 15:10:00,38.2,31.3,30.07,NNE,32,4.0,4.0,76,0.00,OVC,,0.06,WeatherDisplay:10.37,2013-04-17 20:10:00,
2013-04-17 15:15:00,38.3,31.4,30.07,NNE,17,9.0,9.0,76,0.00,OVC,,0.06,WeatherDisplay:10.37,2013-04-17 20:15:00,
2013-04-17 15:20:00,38.3,31.4,30.07,ENE,57,10.4,10.4,76,0.00,OVC,,0.06,WeatherDisplay:10.37,2013-04-17 20:20:00,
2013-04-17 15:25:00,38.5,31.3,30.07,ENE,76,6.9,6.9,75,0.00,OVC,,0.06,WeatherDisplay:10.37,2013-04-17 20:25:00,
2013-04-17 15:30:00,38.6,31.7,30.06,SE,126,5.0,5.0,76,0.00,OVC,,0.06,WeatherDisplay:10.37,2013-04-17 20:30:00,
2013-04-17 15:35:00,38.9,32.0,30.06,NNE,20,4.6,4.6,76,0.00,OVC,,0.06,WeatherDisplay:10.37,2013-04-17 20:35:00,
2013-04-17 15:40:00,38.9,31.6,30.06,ENE,59,10.4,10.4,75,0.00,OVC,,0.06,WeatherDisplay:10.37,2013-04-17 20:40:00,
2013-04-17 15:45:00,38.9,32.0,30.04,East,94,10.4,10.4,76,0.00,OVC,,0.06,WeatherDisplay:10.37,2013-04-17 20:45:00,
2013-04-17 15:50:00,38.9,32.0,30.04,ENE,61,10.4,10.4,76,0.00,OVC,,0.06,WeatherDisplay:10.37,2013-04-17 20:50:00,
2013-04-17 15:55:00,38.6,31.7,30.04,East,91,11.5,11.5,76,0.00,OVC,,0.06,WeatherDisplay:10.37,2013-04-17 20:55:00,
2013-04-17 16:00:00,38.3,31.7,30.05,ENE,69,9.2,9.2,77,0.00,OVC,,0.06,WeatherDisplay:10.37,2013-04-17 21:00:00,
2013-04-17 16:05:00,38.3,32.0,30.05,ENE,78,9.2,9.2,78,0.00,OVC,,0.06,WeatherDisplay:10.37,2013-04-17 21:05:00,
2013-04-17 16:10:00,38.2,31.9,30.05,NE,38,15.0,15.0,78,0.00,OVC,,0.06,WeatherDisplay:10.37,2013-04-17 21:10:00,
2013-04-17 16:15:00,38.2,31.9,30.04,NE,38,9.2,9.2,78,0.00,OVC,,0.06,WeatherDisplay:10.37,2013-04-17 21:15:00,
2013-04-17 16:20:00,38.0,31.7,30.04,NE,50,10.4,10.4,78,0.00,OVC,,0.06,WeatherDisplay:10.37,2013-04-17 21:20:00,
2013-04-17 16:25:00,37.9,31.7,30.04,ENE,62,10.4,10.4,78,0.00,OVC,,0.06,WeatherDisplay:10.37,2013-04-17 21:25:00,
2013-04-17 16:30:00,37.8,31.9,30.05,ESE,103,11.5,11.5,79,0.00,OVC,,0.06,WeatherDisplay:10.37,2013-04-17 21:30:00,
2013-04-17 16:35:00,37.6,32.0,30.05,North,11,10.4,10.4,80,0.00,OVC,,0.06,WeatherDisplay:10.37,2013-04-17 21:35:00,
2013-04-17 16:40:00,37.3,32.3,30.05,NE,49,10.4,10.4,82,0.00,OVC,,0.06,WeatherDisplay:10.37,2013-04-17 21:40:00,
2013-04-17 16:45:00,37.2,32.5,30.03,ENE,75,5.8,5.8,83,0.00,-DZ,,0.06,WeatherDisplay:10.37,2013-04-17 21:45:00,
2013-04-17 16:50:00,37.0,32.6,30.03,ENE,69,10.4,10.4,84,0.00,-DZ,,0.06,WeatherDisplay:10.37,2013-04-17 21:50:00,
2013-04-17 16:55:00,36.9,32.8,30.03,ENE,65,10.4,10.4,85,0.00,-DZ,,0.06,WeatherDisplay:10.37,2013-04-17 21:55:00,
2013-04-17 17:00:00,36.9,33.1,30.01,NNE,12,6.9,6.9,86,0.00,OVC,,0.06,WeatherDisplay:10.37,2013-04-17 22:00:00,
2013-04-17 17:05:00,36.9,33.1,30.01,ENE,58,4.6,4.6,86,0.00,OVC,,0.06,WeatherDisplay:10.37,2013-04-17 22:05:00,
2013-04-17 17:10:00,36.9,33.4,30.01,ENE,63,11.5,11.5,87,0.00,OVC,,0.06,WeatherDisplay:10.37,2013-04-17 22:10:00,
2013-04-17 17:15:00,36.6,33.1,30.00,NE,50,11.5,11.5,87,0.01,RA,,0.07,WeatherDisplay:10.37,2013-04-17 22:15:00,
2013-04-17 17:20:00,36.5,33.3,30.00,NNE,24,11.5,11.5,88,0.01,RA,,0.07,WeatherDisplay:10.37,2013-04-17 22:20:00,
2013-04-17 17:25:00,36.5,33.3,30.00,NE,48,11.5,11.5,88,0.01,OVC,,0.07,WeatherDisplay:10.37,2013-04-17 22:25:00,
2013-04-17 17:30:00,36.5,33.6,29.99,NE,34,5.8,5.8,89,0.01,-SN,,0.07,WeatherDisplay:10.37,2013-04-17 22:30:00,
2013-04-17 17:35:00,36.5,33.6,29.99,NNE,17,6.0,6.0,89,0.01,-SN,,0.07,WeatherDisplay:10.37,2013-04-17 22:35:00,
2013-04-17 17:40:00,36.3,33.4,29.99,NE,53,6.9,6.9,89,0.01,-SN,,0.07,WeatherDisplay:10.37,2013-04-17 22:40:00,
2013-04-17 17:45:00,36.3,33.6,29.99,NE,48,12.7,12.7,90,0.01,-RA,,0.07,WeatherDisplay:10.37,2013-04-17 22:45:00,
2013-04-17 17:50:00,36.3,33.6,29.99,NNE,33,11.5,11.5,90,0.01,-RA,,0.07,WeatherDisplay:10.37,2013-04-17 22:50:00,
2013-04-17 17:55:00,36.3,33.6,29.99,North,355,6.9,6.9,90,0.01,-RA,,0.07,WeatherDisplay:10.37,2013-04-17 22:55:00,
2013-04-17 18:00:00,36.3,33.6,30.00,NNE,18,9.2,9.2,90,0.02,-RA,,0.08,WeatherDisplay:10.37,2013-04-17 23:00:00,
2013-04-17 18:05:00,36.3,33.6,30.00,NE,40,10.4,10.4,90,0.02,-RA,,0.08,WeatherDisplay:10.37,2013-04-17 23:05:00,
2013-04-17 18:10:00,36.2,33.8,30.00,NNE,17,9.2,9.2,91,0.03,-RA,,0.09,WeatherDisplay:10.37,2013-04-17 23:10:00,
2013-04-17 18:15:00,36.2,33.8,29.99,NNE,28,10.4,10.4,91,0.02,-RA,,0.09,WeatherDisplay:10.37,2013-04-17 23:15:00,
2013-04-17 18:20:00,36.2,33.8,29.99,ENE,62,4.6,4.6,91,0.03,-RA,,0.10,WeatherDisplay:10.37,2013-04-17 23:20:00,
2013-04-17 18:25:00,36.2,33.8,29.99,ENE,62,6.9,6.9,91,0.04,-RA,,0.11,WeatherDisplay:10.37,2013-04-17 23:25:00,
2013-04-17 18:30:00,36.2,33.8,29.98,NE,55,9.2,9.2,91,0.04,-RA,,0.11,WeatherDisplay:10.37,2013-04-17 23:30:00,
2013-04-17 18:35:00,36.2,33.8,29.98,ENE,74,7.0,7.0,91,0.04,-RA,,0.11,WeatherDisplay:10.37,2013-04-17 23:35:00,
2013-04-17 18:40:00,36.0,33.9,29.98,ENE,70,6.9,6.9,92,0.05,-RA,,0.12,WeatherDisplay:10.37,2013-04-17 23:40:00,
2013-04-17 18:45:00,36.0,33.9,29.99,NE,44,10.4,10.4,92,0.05,-RA,,0.12,WeatherDisplay:10.37,2013-04-17 23:45:00,
2013-04-17 18:50:00,36.0,33.9,29.99,North,360,12.7,12.7,92,0.05,-RA,,0.12,WeatherDisplay:10.37,2013-04-17 23:50:00,
2013-04-17 18:55:00,36.0,33.9,29.99,North,5,11.5,11.5,92,0.06,-RA,,0.13,WeatherDisplay:10.37,2013-04-17 23:55:00,
2013-04-17 19:00:00,36.0,33.9,29.97,East,79,11.5,11.5,92,0.05,-RA,,0.13,WeatherDisplay:10.37,2013-04-18 00:00:00,
2013-04-17 19:05:00,36.0,33.9,29.97,NNE,13,10.4,10.4,92,0.05,-RA,,0.13,WeatherDisplay:10.37,2013-04-18 00:05:00,
2013-04-17 19:10:00,36.0,33.9,29.97,NNE,22,15.0,15.0,92,0.04,-RA,,0.13,WeatherDisplay:10.37,2013-04-18 00:10:00,
2013-04-17 19:15:00,36.0,33.9,29.96,ENE,65,9.2,9.2,92,0.04,-RA,,0.13,WeatherDisplay:10.37,2013-04-18 00:15:00,
2013-04-17 19:20:00,36.0,33.9,29.96,NNE,17,10.4,10.4,92,0.03,-RA,,0.13,WeatherDisplay:10.37,2013-04-18 00:20:00,
2013-04-17 19:25:00,35.9,33.8,29.96,NE,53,11.5,11.5,92,0.02,-RA,,0.13,WeatherDisplay:10.37,2013-04-18 00:25:00,
2013-04-17 19:30:00,35.9,33.8,29.95,ENE,76,12.7,12.7,92,0.02,-RA,,0.13,WeatherDisplay:10.37,2013-04-18 00:30:00,
2013-04-17 19:35:00,35.9,33.8,29.95,NNE,18,12.7,12.7,92,0.02,-RA,,0.13,WeatherDisplay:10.37,2013-04-18 00:35:00,
2013-04-17 19:40:00,36.0,33.9,29.95,North,11,9.0,9.0,92,0.01,-RA,,0.13,WeatherDisplay:10.37,2013-04-18 00:40:00,
2013-04-17 19:45:00,36.0,33.9,29.97,NE,34,10.0,10.0,92,0.01,OVC,,0.13,WeatherDisplay:10.37,2013-04-18 00:45:00,
2013-04-17 19:50:00,36.0,33.9,29.97,NE,50,11.5,11.5,92,0.01,OVC,,0.13,WeatherDisplay:10.37,2013-04-18 00:50:00,
2013-04-17 19:55:00,36.0,33.9,29.97,NE,56,11.5,11.5,92,0.00,OVC,,0.13,WeatherDisplay:10.37,2013-04-18 00:55:00,
2013-04-17 20:00:00,36.0,33.9,29.97,NNE,24,9.2,9.2,92,0.00,OVC,,0.13,WeatherDisplay:10.37,2013-04-18 01:00:00,
2013-04-17 20:05:00,36.0,33.9,29.97,ENE,60,13.8,13.8,92,0.00,OVC,,0.13,WeatherDisplay:10.37,2013-04-18 01:05:00,
2013-04-17 20:10:00,36.0,33.9,29.97,NE,53,11.5,11.5,92,0.00,OVC,,0.13,WeatherDisplay:10.37,2013-04-18 01:10:00,
2013-04-17 20:15:00,36.0,33.9,29.97,ENE,78,12.0,12.0,92,0.00,OVC,,0.13,WeatherDisplay:10.37,2013-04-18 01:15:00,
2013-04-17 20:20:00,36.0,33.9,29.97,NE,40,11.5,11.5,92,0.00,OVC,,0.13,WeatherDisplay:10.37,2013-04-18 01:20:00,
2013-04-17 20:25:00,36.0,33.9,29.97,ENE,71,14.0,14.0,92,0.00,OVC,,0.13,WeatherDisplay:10.37,2013-04-18 01:25:00,
2013-04-17 20:30:00,36.0,33.9,29.97,East,79,13.8,13.8,92,0.01,-RA,,0.14,WeatherDisplay:10.37,2013-04-18 01:30:00,
2013-04-17 20:35:00,36.0,33.9,29.97,NNE,29,10.4,10.4,92,0.01,-RA,,0.14,WeatherDisplay:10.37,2013-04-18 01:35:00,
2013-04-17 20:40:00,36.0,33.9,29.97,NE,49,11.5,11.5,92,0.01,-RA,,0.14,WeatherDisplay:10.37,2013-04-18 01:40:00,
2013-04-17 20:45:00,36.0,33.9,29.97,ENE,77,9.2,9.2,92,0.01,-RA,,0.14,WeatherDisplay:10.37,2013-04-18 01:45:00,
2013-04-17 20:50:00,36.0,33.9,29.97,ENE,58,9.2,9.2,92,0.02,-RA,,0.15,WeatherDisplay:10.37,2013-04-18 01:50:00,
2013-04-17 20:55:00,36.0,33.9,29.97,East,82,4.0,4.0,92,0.02,-RA,,0.15,WeatherDisplay:10.37,2013-04-18 01:55:00,
2013-04-17 21:00:00,36.2,34.1,29.99,NE,51,11.5,11.5,92,0.03,-RA,,0.16,WeatherDisplay:10.37,2013-04-18 02:00:00,
2013-04-17 21:05:00,36.0,33.9,29.99,ENE,72,8.1,8.1,92,0.03,-RA,,0.16,WeatherDisplay:10.37,2013-04-18 02:05:00,
2013-04-17 21:10:00,36.0,33.9,29.99,ENE,73,9.2,9.2,92,0.04,-RA,,0.17,WeatherDisplay:10.37,2013-04-18 02:10:00,
2013-04-17 21:15:00,36.0,33.9,29.99,North,5,9.0,9.0,92,0.05,-RA,,0.18,WeatherDisplay:10.37,2013-04-18 02:15:00,
2013-04-17 21:20:00,36.0,33.9,29.99,NE,42,9.0,9.0,92,0.06,-RA,,0.19,WeatherDisplay:10.37,2013-04-18 02:20:00,
2013-04-17 21:25:00,35.9,33.8,29.99,ENE,57,6.9,6.9,92,0.07,-RA,,0.20,WeatherDisplay:10.37,2013-04-18 02:25:00,
2013-04-17 21:30:00,35.9,33.8,29.99,ENE,78,11.5,11.5,92,0.06,-RA,,0.20,WeatherDisplay:10.37,2013-04-18 02:30:00,
2013-04-17 21:35:00,35.8,33.7,29.99,NNE,25,10.4,10.4,92,0.07,-RA,,0.21,WeatherDisplay:10.37,2013-04-18 02:35:00,
2013-04-17 21:40:00,35.6,33.5,29.99,ENE,59,11.5,11.5,92,0.07,-RA,,0.21,WeatherDisplay:10.37,2013-04-18 02:40:00,
2013-04-17 21:45:00,35.5,33.4,29.95,NNE,31,10.4,10.4,92,0.07,OVC,,0.21,WeatherDisplay:10.37,2013-04-18 02:45:00,
2013-04-17 21:50:00,35.3,33.2,29.95,East,80,10.4,10.4,92,0.07,RA,,0.22,WeatherDisplay:10.37,2013-04-18 02:50:00,
2013-04-17 21:55:00,35.2,33.4,29.95,NNE,28,11.5,11.5,93,0.08,RA,,0.23,WeatherDisplay:10.37,2013-04-18 02:55:00,
2013-04-17 22:00:00,35.2,33.4,29.93,NE,37,12.7,12.7,93,0.08,RA,,0.24,WeatherDisplay:10.37,2013-04-18 03:00:00,
2013-04-17 22:05:00,35.2,33.4,29.93,NE,41,12.7,12.7,93,0.09,RA,,0.25,WeatherDisplay:10.37,2013-04-18 03:05:00,
2013-04-17 22:10:00,35.0,33.2,29.93,NNE,17,11.5,11.5,93,0.10,RA,,0.27,WeatherDisplay:10.37,2013-04-18 03:10:00,
2013-04-17 22:15:00,35.0,33.2,29.89,North,5,8.1,8.1,93,0.11,RA,,0.29,WeatherDisplay:10.37,2013-04-18 03:15:00,
2013-04-17 22:20:00,35.0,33.2,29.89,NNE,17,15.0,15.0,93,0.12,RA,,0.31,WeatherDisplay:10.37,2013-04-18 03:20:00,
2013-04-17 22:25:00,35.2,33.4,29.89,NNE,17,10.4,10.4,93,0.12,RA,,0.32,WeatherDisplay:10.37,2013-04-18 03:25:00,
2013-04-17 22:30:00,35.2,33.4,29.89,North,360,11.5,11.5,93,0.13,-RA,,0.33,WeatherDisplay:10.37,2013-04-18 03:30:00,
2013-04-17 22:35:00,35.2,33.4,29.89,NNE,26,4.6,4.6,93,0.13,-RA,,0.34,WeatherDisplay:10.37,2013-04-18 03:35:00,
2013-04-17 22:40:00,35.3,33.7,29.89,NE,43,17.3,17.3,94,0.14,-RA,,0.35,WeatherDisplay:10.37,2013-04-18 03:40:00,
2013-04-17 22:45:00,35.3,33.5,29.88,North,9,5.0,5.0,93,0.14,-RA,,0.35,WeatherDisplay:10.37,2013-04-18 03:45:00,
2013-04-17 22:50:00,35.3,33.5,29.88,NNE,27,9.2,9.2,93,0.13,-RA,,0.35,WeatherDisplay:10.37,2013-04-18 03:50:00,
2013-04-17 22:55:00,35.3,33.5,29.88,NE,38,6.9,6.9,93,0.12,-RA,,0.35,WeatherDisplay:10.37,2013-04-18 03:55:00,
2013-04-17 23:00:00,35.5,33.9,29.91,ENE,78,11.5,11.5,94,0.11,-RA,,0.35,WeatherDisplay:10.37,2013-04-18 04:00:00,
2013-04-17 23:01:00,35.5,33.9,29.91,ENE,57,11.5,11.5,94,0.11,-RA,,0.35,WeatherDisplay:10.37,2013-04-18 04:01:00,
2013-04-17 23:02:00,35.5,33.1,29.91,ENE,71,11.5,11.5,91,0.11,-RA,,0.35,WeatherDisplay:10.37,2013-04-18 04:02:00,
2013-04-17 23:07:00,35.5,33.7,29.91,NE,55,9.2,9.2,93,0.10,-RA,,0.35,WeatherDisplay:10.37,2013-04-18 04:07:00,
2013-04-17 23:12:00,35.5,33.7,29.91,NE,51,11.5,11.5,93,0.09,-RA,,0.36,WeatherDisplay:10.37,2013-04-18 04:12:00,
2013-04-17 23:17:00,35.5,33.7,29.89,NE,55,14.0,14.0,93,0.07,-RA,,0.36,WeatherDisplay:10.37,2013-04-18 04:17:00,
2013-04-17 23:22:00,35.5,33.7,29.89,North,5,11.5,11.5,93,0.06,-RA,,0.37,WeatherDisplay:10.37,2013-04-18 04:22:00,
2013-04-17 23:27:00,35.5,33.7,29.89,NNE,13,11.5,11.5,93,0.04,-RA,,0.37,WeatherDisplay:10.37,2013-04-18 04:27:00,
2013-04-17 23:32:00,35.3,33.5,29.89,NNE,15,5.8,5.8,93,0.04,-RA,,0.37,WeatherDisplay:10.37,2013-04-18 04:32:00,
2013-04-17 23:37:00,35.3,33.5,29.89,NNE,18,17.3,17.3,93,0.04,-RA,,0.38,WeatherDisplay:10.37,2013-04-18 04:37:00,
2013-04-17 23:42:00,35.3,33.5,29.89,NNE,15,7.0,7.0,93,0.03,-RA,,0.38,WeatherDisplay:10.37,2013-04-18 04:42:00,
2013-04-17 23:47:00,35.2,33.4,29.89,NNE,16,6.9,6.9,93,0.03,-RA,,0.38,WeatherDisplay:10.37,2013-04-18 04:47:00,
2013-04-17 23:52:00,34.9,33.1,29.89,North,355,10.4,10.4,93,0.04,-RA,,0.39,WeatherDisplay:10.37,2013-04-18 04:52:00,
2013-04-17 23:57:00,34.7,32.9,29.89,North,11,11.0,11.0,93,0.04,-RA,,0.39,WeatherDisplay:10.37,2013-04-18 04:57:00,